Regional Weather Roundup
Issued by NWS

Home | Current Version | Previous Version | Graphics & Text | Print | Product List | Glossary On
Versions: 1 2 3 4 5 6 7 8 9 10 11 12 13 14 15 16 17 18 19 20 21 22 23 24 25 26 27 28 29 30 31 32 33 34 35 36 37 38 39 40 41 42 43 44 45 46 47 48 49 50
267
ASUS43 KFSD 270610
RWRSD

WEATHER ROUNDUP FOR SOUTH DAKOTA
NATIONAL WEATHER SERVICE SIOUX FALLS SD
100 AM CDT TUE JUN 27 2017

NOTE: "FAIR" INDICATES FEW OR NO CLOUDS BELOW 12,000 FEET WITH NO
SIGNIFICANT WEATHER AND/OR OBSTRUCTIONS TO VISIBILITY.


SDZ001>005-009-010-012>017-270700-
NORTHWEST AND NORTH CENTRAL SOUTH DAKOTA

CITY           SKY/WX    TMP DP  RH WIND       PRES   REMARKS
BUFFALO          N/A     64  40  41 SE25G32   29.85F
FAITH            N/A     59  37  44 SE23G31   29.97F
MOBRIDGE       CLOUDY    62  41  46 SE18      30.01F
$$

SDZ012>016-024>037-041>051-057-063-072>074-270700-
SOUTHWEST AND SOUTH CENTRAL SOUTH DAKOTA

CITY           SKY/WX    TMP DP  RH WIND       PRES   REMARKS
RAPID CTY ARPT CLEAR     57  40  52 S10       29.99F
PIERRE         CLEAR     57  42  57 SE13      30.03F
CUSTER         CLEAR     58  35  42 S3        30.11F
ELLSWORTH AFB  CLEAR     60  40  47 S18       29.98F
PHILIP         CLEAR     61  40  45 SE12      30.01F
PINE RIDGE     CLEAR     66  41  40 S20G37    30.02F
SPEARFISH      FAIR      70  41  35 VRB7      29.91F
WINNER         FAIR      58  38  47 SE12      30.07F
$$

SDZ004>011-016>023-039-040-270700-
NORTHEAST SOUTH DAKOTA

CITY           SKY/WX    TMP DP  RH WIND       PRES   REMARKS
ABERDEEN       CLEAR     48  41  76 S10       30.08F
WATERTOWN      CLEAR     53  40  61 SE5       30.11F
BROOKINGS      CLEAR     52  42  69 CALM      30.14S
SISSETON         N/A     51  43  74 S8        30.08F
$$

SDZ017-020-022-023-036>040-048>070-270700-
SOUTHEAST SOUTH DAKOTA

CITY           SKY/WX    TMP DP  RH WIND       PRES   REMARKS
SIOUX FALLS    CLEAR     53  48  83 CALM      30.13F
HURON          CLEAR     54  41  61 SE8       30.09F
CHAMBERLAIN    CLEAR     55  42  60 E8        30.09S
MITCHELL       CLEAR     55  43  63 S6        30.11F
YANKTON        CLEAR     54  43  66 CALM      30.14S
$$

ABBREVIATIONS USED IN REMARKS
   TC - TEMPERATURE IN CELSIUS
  WCI - WIND CHILL INDEX
   HX - HEAT INDEX
  VSB - VISIBILITY





USA.gov is the U.S. government's official web portal to all federal, state and local government web resources and services.